This demonstration page uses our WeatherBlox Daily Observations layout. Learn more.

Left ArrowRight Arrow

39.08367, -84.50855

Hourly Observations for October 21, 2018

Temp ( °F °C ) Dew Point ( °F °C ) Humidity (%) Winds ( mph kmh ) Pressure ( in mb ) Visibility ( mi km ) Precip ( " mm )
12:53 am 00:53 Mostly Cloudy 41 5 31 -0.6 67 67 NNW 10 17 30.26 1025 10 16 N/A
1:53 am 01:53 Clear 39 3.9 30 -1.1 70 70 NNW 9 15 30.27 1025 10 16 N/A
2:53 am 02:53 Clear 38 3.3 30 -1.1 73 73 NW 6 9 30.29 1026 10 16 N/A
3:53 am 03:53 Clear 37 2.8 31 -0.6 79 79 WNW 6 9 30.32 1027 10 16 N/A
4:53 am 04:53 Cloudy 38 3.3 31 -0.6 76 76 N N/A 30.32 1027 10 16 N/A
5:53 am 05:53 Cloudy 38 3.3 32 undefined 79 79 VRB 3 6 30.34 1027 10 16 N/A
6:53 am 06:53 Cloudy 39 3.9 31 -0.6 73 73 VRB 7 11 30.36 1028 10 16 N/A
7:53 am 07:53 Mostly Cloudy 38 3.3 30 -1.1 73 73 WNW 6 9 30.38 1029 10 16 N/A
8:53 am 08:53 Mostly Cloudy 38 3.3 30 -1.1 73 73 NW 8 13 30.41 1030 10 16 N/A
9:53 am 09:53 Mostly Cloudy 40 4.4 31 -0.6 70 70 VRB 3 6 30.43 1031 10 16 N/A
10:53 am 10:53 Mostly Cloudy 43 6.1 30 -1.1 60 60 NE 9 15 30.42 1030 10 16 N/A
11:53 am 11:53 Partly Cloudy 43 6.1 29 -1.7 58 58 N N/A 30.40 1030 10 16 N/A
12:53 pm 12:53 Partly Cloudy 46 7.8 31 -0.6 56 56 N N/A 30.38 1029 10 16 N/A
1:53 pm 13:53 Mostly Sunny 48 8.9 33 0.6 56 56 S 3 6 30.34 1027 10 16 N/A
2:53 pm 14:53 Sunny 49 9.4 32 undefined 52 52 SSW 5 7 30.32 1027 10 16 N/A
3:53 pm 15:53 Sunny 49 9.4 32 undefined 52 52 SSW 3 6 30.30 1026 10 16 N/A
4:53 pm 16:53 Sunny 50 10 32 undefined 50 50 SW 8 13 30.29 1026 10 16 N/A
5:53 pm 17:53 Sunny 50 10 32 undefined 50 50 WSW 7 11 30.29 1026 10 16 N/A
6:53 pm 18:53 Clear 45 7.2 34 1.1 66 66 S 8 13 30.28 1026 10 16 N/A
7:53 pm 19:53 Clear 41 5 37 2.8 86 86 N N/A 30.28 1026 10 16 N/A
8:53 pm 20:53 Clear 38 3.3 36 2.2 93 93 N N/A 30.28 1025 10 16 N/A
9:53 pm 21:53 Clear 36 2.2 36 2.2 100 100 N N/A 30.26 1025 10 16 N/A
10:53 pm 22:53 Clear 36 2.2 35 1.7 97 97 N N/A 30.26 1025 10 16 N/A
11:53 pm 23:53 Clear 35 1.7 34 1.1 96 96 N N/A 30.25 1024 10 16 N/A

Powered by AerisWeather